Location: U-46 Planetarium
(42.0300°N, 88.2740°W)
Time: 18:29:02
(UTC-06:00)

Daily predictions for brighter satellites

Satellite Brightness Start Highest point End
(mag) Time Altitude Azimuth Time Altitude Azimuth Time Altitude Azimuth
SJ 16-02 2.5 16:49:45 10° SSE 16:53:16 24° E 16:56:48 10° NE
COSMOS 2441 4.5 16:48:33 10° SSE 16:53:28 89° W 16:58:24 10° NNW
Cosmos 2279 Rocket 4.0 16:48:23 10° S 16:54:35 70° E 17:00:50 10° NNE
IDEFIX/ARIANE 42P 3.8 16:50:31 10° S 16:55:29 47° W 17:00:30 10° NNW
Cosmos 1975 Rocket 3.2 16:51:14 10° S 16:55:43 86° W 17:00:14 10° N
Cosmos 2298 Rocket 4.3 16:50:27 10° SSW 16:55:45 73° WNW 17:01:05 10° NNE
Cosmos 1975 3.0 16:58:12 10° N 17:02:15 79° W 17:06:18 10° S
SMAP 3.2 16:58:49 10° SSE 17:03:20 55° ENE 17:07:54 10° N
NOSS 3-2 (A) 4.3 16:58:39 10° NNW 17:05:47 47° NE 17:13:34 10° ESE
Meteor 2-4 Rocket 4.0 17:02:30 10° SSE 17:07:34 41° E 17:12:35 10° NNE
CSL-04 Debris 4.1 17:04:06 10° SSE 17:09:27 71° ENE 17:14:50 10° N
NOSS 3-2 (C) 4.4 17:06:22 10° NNW 17:13:21 42° NE 17:20:57 10° ESE
DELTA 2 R/B (1) 3.8 17:08:49 10° W 17:14:20 70° S 17:19:54 10° E
BREEZE-M DEB (TANK) 2.5 17:11:51 10° WNW 17:14:25 84° SSW 17:21:35 10° ESE
Meteor 1-13 Rocket 4.2 17:12:03 10° S 17:17:35 68° E 17:23:16 10° NNE
ALOS 3.3 17:14:01 10° ESE 17:17:40 23° ENE 17:21:20 10° NNE
Cosmos 1025 Rocket 4.5 17:15:04 10° SE 17:17:57 18° E 17:19:59 13° NE
Cosmos 2369 3.9 17:12:53 10° S 17:18:23 54° ESE 17:23:56 10° NNE
Cosmos 2278 3.9 17:13:30 10° S 17:18:58 51° ESE 17:24:30 10° NNE
ATLAS 2AS CENTAUR R/B 3.3 17:12:16 10° SW 17:20:02 72° NW 17:28:13 10° NNE
ATLAS 3B R/B 2.6 17:13:30 10° NNW 17:20:14 81° NE 17:26:46 10° SE
IRAS Rocket 4.4 17:18:00 10° SSE 17:23:28 80° WSW 17:29:00 10° NNW
FENGYUN 3A 4.4 17:19:08 10° SE 17:23:42 29° ENE 17:28:15 10° N
Cosmos 1536 Rocket 3.6 17:19:42 10° S 17:23:57 57° E 17:28:13 10° NNE
METEOR-M 4.3 17:19:47 10° SE 17:24:53 47° ENE 17:29:59 10° N
Hubble Space Telescope 3.7 17:24:20 10° SSW 17:25:00 10° S 17:25:41 10° S
Meteor 1-28 Rocket 3.1 17:21:26 10° NNE 17:25:11 72° ESE 17:28:57 10° S
CZ-4 R/B 1.2 17:22:15 10° SSE 17:26:06 67° ENE 17:30:02 10° N
CSL-04 Rocket 3.9 17:20:51 10° S 17:26:16 76° WSW 17:31:48 10° NNW
Cosmos 158 Rocket 3.8 17:21:31 10° NNW 17:26:38 75° ENE 17:31:33 10° SSE
USA 215 3.4 17:25:49 10° SE 17:32:22 78° SW 17:38:56 10° NW
Cosmos 468 4.5 17:27:12 10° NNW 17:32:34 86° ENE 17:37:51 10° SSE
Cosmos 1743 3.8 17:31:37 10° NNW 17:35:22 48° W 17:39:07 10° SSW
EO 1 Del DPAF 4.1 17:33:38 18° NE 17:35:39 29° E 17:39:00 10° SSE
Cosmos 1697 Rocket 3.1 17:31:31 10° S 17:36:49 44° ESE 17:41:05 15° NE
SKYMED 2 3.9 17:33:15 10° NNE 17:37:24 42° E 17:41:31 10° S
Cosmos 1515 4.4 17:34:48 10° SSE 17:38:10 31° E 17:39:55 21° NE
NOSS 8 (A) 4.3 17:35:41 10° SW 17:38:59 82° WNW 17:41:04 21° NNE
NOSS 3-4 (A) 3.8 17:35:40 10° S 17:41:32 46° ESE 17:45:48 19° NE
NOSS 3-4 (C) 3.8 17:35:47 10° S 17:41:38 45° ESE 17:45:51 19° NE
Okean 2 4.0 17:42:43 10° SSE 17:46:26 35° E 17:48:05 25° NE
Abrixas rocket 3.6 17:43:41 10° WNW 17:46:30 26° N 17:47:23 23° NNE
Cosmos 2082 3.7 17:43:00 10° NNW 17:48:39 86° WSW 17:54:17 10° SSE
PSLV R/B 3.1 17:47:04 10° W 17:50:13 72° S 17:51:14 39° E
Landsat 4 3.6 17:49:54 13° NNE 17:53:15 77° ESE 17:57:03 10° S
ISS -1.5 17:50:48 10° WNW 17:53:35 25° SW 17:56:21 10° SSE
Gbstr 26 Del rocket 4.4 17:45:53 10° SW 17:53:58 78° SE 17:58:45 24° ENE
Cosmos 2266 Rocket 4.0 17:48:51 10° N 17:54:58 86° W 18:01:09 10° S
ERS-2 2.1 17:53:10 10° SSE 17:56:47 58° ENE 18:00:23 10° N
BREEZE-M DEB (TANK) 3.7 17:56:12 10° NW 17:59:07 58° NNE 18:02:42 23° ESE
SPOT 3 Rocket 3.5 17:55:00 10° SSE 18:00:05 60° ENE 18:05:10 10° N
CENTAUR R/B 3.5 17:53:08 10° NNW 18:00:20 39° NE 18:04:34 24° E
Cosmos 2227 Rocket 3.0 17:54:49 10° NNW 18:00:21 55° WSW 18:05:49 10° S
YAOGAN 1 3.3 18:05:25 10° S 18:09:39 56° W 18:13:55 10° NNW
MOS 1 4.3 18:07:33 10° SSE 18:13:15 84° WSW 18:18:58 10° NNW
Cosmos 2251 Rocket 4.1 18:09:15 10° N 18:13:35 35° NE 18:13:35 35° NE
S3M 4.4 18:11:25 10° SSE 18:16:55 36° E 18:17:05 36° E
Cosmos 1980 Rocket 2.3 18:12:15 10° S 18:17:46 55° ESE 18:19:35 39° NE
Cosmos 494 Rocket 4.0 18:12:56 10° NNW 18:18:10 58° ENE 18:23:06 11° SE
Meteor 1-23 Rocket 4.5 18:13:17 10° SSW 18:19:00 70° W 18:24:43 10° N
Cosmos 1066 Rocket 4.4 18:13:58 10° SSE 18:19:09 44° E 18:19:39 43° ENE
COSMO-SKYMED 1 3.2 18:21:49 14° N 18:25:29 56° WNW 18:29:43 10° SSW
Cosmos 2297 Rocket 3.6 18:21:37 10° NW 18:26:50 39° WSW 18:32:01 10° S
Cosmos 1244 Rocket 4.3 18:23:36 10° N 18:29:47 81° E 18:35:58 10° S
Atlas Centaur 2 4.3 18:28:03 10° SW 18:29:50 12° SSW 18:31:30 10° S
Gblst 52 Del rocket 4.2 18:25:17 10° NW 18:30:59 81° NNE 18:33:02 44° ESE
SJ 16-02 3.1 18:27:49 10° SW 18:31:42 30° WNW 18:35:01 13° N
Cosmos 2344 4.3 18:35:09 10° S 18:40:34 31° SE 18:40:34 31° SE
Cosmos 2227 4.2 18:40:00 10° NNW 18:45:09 60° NNE 18:45:09 60° NNE
RESURS DK-1 3.7 18:42:05 10° SSW 18:44:19 31° S 18:44:19 31° S
Cosmos 1553 Rocket 3.9 18:43:56 10° S 18:50:20 77° E 18:52:37 42° NNE
SL-08 R/B 4.3 18:45:18 10° N 18:51:36 78° E 18:57:48 10° S
Cosmos 1417 Rocket 4.4 18:47:20 10° S 18:53:30 88° W 18:56:48 30° N
Okean 1-7 Rocket 4.2 18:49:20 10° SSW 18:53:36 52° W 18:54:16 47° NW
SL-24 R/B - RUBIN 2 4.4 18:48:38 10° SW 18:54:51 73° NW 18:55:53 59° N
ALOS 3.7 18:50:34 10° SSW 18:54:53 37° W 18:59:14 10° NNW
Cosmos 1025 Rocket 4.4 18:51:16 10° SW 18:55:15 37° WNW 18:56:56 26° NNW
SL-16 R/B 4.0 18:53:52 10° S 18:55:26 18° SSE 18:55:26 18° SSE
DELTA 2 R/B (1) 4.0 18:55:09 10° W 19:00:34 54° SSW 19:00:47 53° S
Cosmos 1745 Rocket 4.4 18:57:00 10° N 19:09:07 12° SSE 19:09:30 10° S
Cosmos 2263 Rocket 4.2 18:58:29 10° N 18:59:25 14° N 18:59:25 14° N
Cosmos 2322 Rocket 4.1 18:58:55 10° S 19:00:14 17° S 19:00:14 17° S
Cosmos 2360 4.4 19:00:48 10° SSW 19:06:29 67° WNW 19:07:03 63° NNW
Cosmos 1697 Rocket 4.3 19:16:04 10° WSW 19:20:55 29° NW 19:22:52 24° NNW
CENTAUR R/B 3.3 19:43:41 10° NW 19:51:34 64° WSW 19:51:52 64° SW
Cosmos 1980 Rocket 4.2 19:57:34 10° WSW 20:01:24 24° WNW 20:01:24 24° WNW
